STRATOSAT-TK 1 (RS52S)

Last updated on Wed Sep 17 2025 00:03:09 GMT+0000 (Coordinated Universal Time)

1 57167U 23091B 25259.54981060 .00062422 00000+0 11527-2 0 9990 2 57167 97.5417 326.7507 0005478 302.1042 57.9677 15.48866238123285
UTC large
Height (km)
Speed (km/s)
/
Latitude / Longitude
Inclination (degrees)
Orbital Period (minutes)
Azimuth
Elevation
Range (km)
Doppler Factor

Next 0 passes for location: London (51.5072 / 0.1276)

Sorry there are no passes over London.